Regional Weather Roundup
Issued by NWS Upton, NY

Current Version | Previous Version | Text Only | Print | Product List | Glossary On
Versions: 1 2 3 4 5 6 7 8 9 10 11 12 13 14 15 16 17 18 19 20 21 22 23 24 25 26 27 28 29 30 31 32 33 34 35 36 37 38 39 40 41 42 43 44 45 46 47 48 49 50
000 ASUS41 KOKX 281609 RWROKX REGIONAL WEATHER ROUNDUP NATIONAL WEATHER SERVICE NEW YORK NY 1200 PM EDT FRI APR 28 2017 NOTE: "FAIR" INDICATES FEW OR NO CLOUDS BELOW 12,000 FEET WITH NO SIGNIFICANT WEATHER AND/OR OBSTRUCTIONS TO VISIBILITY. NYZ071-072-176-178-NJZ106-104-281700- NEW YORK CITY METRO AREA CITY SKY/WX TMP DP RH WIND PRES REMARKS Central Park SUNNY 75 60 59 CALM 30.01S HAZE Wall St Helipt SUNNY 70 60 70 SW3G18 30.01S Bronx Bot Gard N/A 75 59 57 E7 29.99S LaGuardia APRT MOSUNNY 74 61 63 NE5 29.98S Kennedy INTL MOSUNNY 70 62 76 S8 30.01R Breezy Point N/A 61 N/A N/A SE6 N/A Newark/Liberty MOSUNNY 78 58 49 S6 29.99R Teterboro SUNNY 75 62 64 MISG 29.97S $$ NYZ177-179-078>081-281700- LONG ISLAND NEW YORK CITY SKY/WX TMP DP RH WIND PRES REMARKS Jones Beach N/A 61 N/A N/A S3 N/A Matinecock PT NOT AVBL Farmingdale SUNNY 71 62 73 S7 30.00S MacArthur/ISP MOSUNNY 74 62 66 SW6 29.99F Shirley SUNNY 69 60 73 S7 30.00S Mt Sinai Harb N/A N/A N/A N/A NW3 N/A Westhampton MOSUNNY 67 57 70 S8 30.02S East Hampton N/A 70 61 72 S3 29.99S Montauk N/A 62 55 77 SE6 30.02R $$ NYZ052-065-067-281700- HUDSON VALLEY CITY SKY/WX TMP DP RH WIND PRES REMARKS White Plains MOSUNNY 72 62 71 SW5 29.99S Larchmont Harb N/A 57 N/A N/A NE2 N/A Croton O-T Hud N/A 66 N/A N/A SE5 N/A Newburgh MOSUNNY 75 63 64 W12 29.99R Montgomery SUNNY 79 56 45 NW9 29.96S Poughkeepsie MOSUNNY 73 61 65 SE5 29.96S Albany PTSUNNY 69 51 52 NW9 30.00R $$ NJZ001-105-106-008-010-013-015-019>022-104-281700- NEW JERSEY CITY SKY/WX TMP DP RH WIND PRES REMARKS Newark/Liberty MOSUNNY 78 58 49 S6 29.99R Teterboro SUNNY 75 62 64 MISG 29.97S Caldwell SUNNY 77 59 53 SW6 29.99R Somerville SUNNY 80 54 40 NW8 29.99R Linden N/A 78 53 42 W6 30.00R Perth Amboy N/A 75 N/A N/A W13 N/A Sussex SUNNY 79 54 41 SW7 29.99R Andover N/A 78 48 34 W8 30.00R Trenton SUNNY 79 54 41 NW8G23 30.01R Millville SUNNY 81 56 42 W8 30.03R Atlantic City SUNNY 83 56 39 NW8 30.02R Wrightstown SUNNY 80 58 46 NW5 29.99R Toms River SUNNY 82 53 36 VRB6 30.01S Belmar SUNNY 81 47 30 NW12 30.01S $$ PAZ047>061-062-071-281700- EASTERN PENNSYLVANIA CITY SKY/WX TMP DP RH WIND PRES REMARKS Philadelphia MOSUNNY 80 55 42 SW10 30.02R Allentown SUNNY 77 54 44 SW6 30.01R Scranton MOSUNNY 74 57 55 VRB3 30.01R $$ CTZ002-004>006-009-010-012-RIZ004-006-007-MAZ004-011-015-281700- SOUTHERN NEW ENGLAND IN CT CITY SKY/WX TMP DP RH WIND PRES REMARKS Bradley INTL MOSUNNY 70 61 73 VRB5 29.98S Hartford MOSUNNY 69 61 75 SE5 29.98S Danbury SUNNY 72 63 73 SE3 29.98F Wtrbury/Oxford MOSUNNY 72 61 68 CALM 30.01S Bridgeport PTSUNNY 64 58 80 SW9 30.00S Meriden MOSUNNY 69 61 75 CALM 29.99S New Haven CLOUDY 62 58 86 SW7 29.99S Chester PTSUNNY 66 66 100 CALM 30.00S Groton PTSUNNY 59 57 93 SW9 29.99S Wilimantic CLOUDY 71 62 73 NW5 29.99F IN RI CITY SKY/WX TMP DP RH WIND PRES REMARKS Providence PTSUNNY 63 60 90 SE6 29.99R Block Island PTSUNNY 62 55 77 SW10 30.01R Westerly CLOUDY 66 59 78 SW6 30.00S IN MA CITY SKY/WX TMP DP RH WIND PRES REMARKS Boston MOSUNNY 68 60 75 W7 29.96S Worcester MOSUNNY 67 58 72 SW9 29.99R Westfield MOSUNNY 70 61 73 CALM 29.97S Provincetown SUNNY 62 59 90 S13 29.97F Nantucket CLOUDY 55 54 96 SW8 30.01F FOG $$ ANZ330-335-338-340-345-350-353-355-281700- COASTAL MARINE OBSERVATIONS STATION/POSITION TIME SKY/WX TEMP WIND PRES VSBY WAVE AIR SEA DIR/SP/G HT/PER (UTC) (F) (DEG/KT/KT) (MB) (MI) (FT/S) NY HARB ENTRANCE 1450 53 51 170/ 2/ 4 1016.2 4/ 9 20 S FIRE ISLAND 1550 52 49 200/ 6/ 6 1016.0 4/ 9 GREAT SOUTH BAY 1515 56 58 210/ 6/ 8 N/A 23 SSW MONTAUK P 1450 50 47 1016.3 5/ 9 15 E BARNEGAT LI 1530 52 N/A 5/ 8 HUDSON CANYON 1450 54 49 200/ 12/ 14 1017.0 5/ 9 KINGS POINT 1548 62 50 40/ 4/ 5 1015.3 EXECUTION ROCKS NOT AVBL CENTRAL LI SOUND NOT AVBL EASTERN LI SOUND NOT AVBL ROBBINS REEF 1548 66 170/ 9/ 10 1015.9 $$ >>>>>>>>>>>>>>>>>>>>>>>>>>>> KEY <<<<<<<<<<<<<<<<<<<<<<<<<<< > < > SKY/WX - Sky Condition/Present Weather < > TMP - Temperature in Fahrenheit < > DP - Dew Point in Fahrenheit < > RH - Relative Humidity in Percent < > WIND - Direction (from) and Speed in MPH < > PRES - Mean Sea Level Pressure (inches of Hg) < > WCI - Wind Chill Index < > VSB - VISIBILITY IN MILES < > HX - HEAT INDEX < > TC - TEMPERATURE IN CELSIUS < > VRB - VARIABLE WIND DIRECTION < > < >>>>>>>>>>>>>>>>>>>>>>>>>>>> KEY <<<<<<<<<<<<<<<<<<<<<<<<<<<

USA.gov is the U.S. government's official web portal to all federal, state and local government web resources and services.